Wind_Speed
33 41 40 47 49 55 63 63 57 40 33 49 57 60 40 59 59 58 55 49 54 52 50 48 45 44 45 44 41 41 45 51 47 47 33 31 29 32 36 37 37 37 39 37
31 40 39 43 40 52 51 58 61 41 44 45 56 45 45 41 55 56 60 54 52 54 51 50 48 44 44 42 41 44 47 48 51 46 44 44 40 39 39 41 39 37 38 40
35 41 27 40 44 38 45 58 59 46 30 46 49 55 53 32 33 48 51 51 58 54 52 52 48 45 43 44 43 43 47 46 50 49 47 45 46 45 40 37 36 36 36 37
32 42 30 22 40 33 36 40 53 41 26 31 41 44 46 35 31 34 36 36 38 48 55 51 46 47 47 47 47 45 44 49 51 53 51 49 50 53 50 41 38 37 36 36
27 31 29 23 33 29 32 31 36 39 30 24 41 38 28 27 32 28 26 33 38 38 40 45 47 48 51 50 48 48 47 47 53 56 51 55 56 43 44 40 39 38 37 32
24 30 27 27 30 29 24 24 28 30 30 30 29 23 34 21 19 25 32 35 37 37 39 40 41 43 46 46 46 46 42 46 52 56 55 55 57 55 54 50 46 44 40 37
20 15 15 20 21 25 18 27 31 15 16 23 29 20 16 25 22 25 28 28 29 32 32 33 33 32 34 34 40 45 45 45 48 54 54 53 58 56 52 52 53 49 45 40
25 18 16 17 20 25 26 24 24 25 26 17 25 27 20 26 28 26 28 27 31 30 30 30 30 30 31 32 36 40 51 47 47 48 54 53 55 47 48 49 47 49 53 54
22 17 17 16 19 15 27 29 29 29 22 20 20 23 23 22 23 25 27 29 29 29 30 32 31 30 31 35 37 39 43 51 49 50 49 52 48 57 55 56 54 54 56 56
8 8 10 14 18 19 21 24 25 29 28 25 22 23 24 27 26 28 31 31 31 32 33 34 33 33 34 36 40 44 47 49 51 52 52 53 52 51 50 47 50 54 51 48
4 2 8 10 16 22 24 25 25 23 30 28 29 27 24 24 24 25 25 27 30 31 31 29 28 32 34 34 40 45 49 51 51 49 49 53 53 53 52 52 57 57 57 56
4 3 7 9 9 16 26 34 32 29 27 27 29 28 26 22 24 25 25 26 26 24 23 23 22 22 22 24 28 34 42 47 51 53 53 48 50 56 57 54 58 57 60 56
10 9 6 4 5 4 10 16 21 24 25 25 27 29 28 25 27 26 26 27 28 27 26 25 23 22 21 21 23 25 28 34 45 47 47 46 49 59 57 59 52 52 48 54
5 6 9 5 3 6 11 12 16 21 25 26 28 27 27 25 26 30 31 30 29 28 29 27 25 24 24 25 26 25 24 24 27 33 42 42 42 47 56 55 52 52 53 55
14 17 14 10 9 7 8 8 9 9 13 20 17 26 27 29 29 30 32 36 37 36 34 32 30 30 30 30 30 28 27 26 25 26 28 34 35 36 42 47 49 46 52 49
10 9 9 9 12 15 16 18 19 17 17 18 20 22 22 25 28 30 30 30 32 35 33 33 33 35 34 32 31 30 30 29 29 28 27 27 27 28 29 32 33 35 37 38
4 6 10 12 13 14 16 19 20 21 22 27 26 24 28 26 28 29 27 27 28 30 34 33 31 32 33 32 34 33 35 34 31 32 32 32 32 32 32 32 34 36 38 38
7 8 10 11 15 17 20 20 22 23 24 25 26 29 31 34 34 33 33 33 34 33 33 34 34 33 35 36 35 34 36 37 37 36 35 36 37 36 35 34 34 35 35 35
6 6 8 11 14 18 21 23 23 24 25 26 29 31 32 34 34 36 37 36 36 37 35 35 35 35 34 37 40 41 40 40 40 40 39 38 38 38 36 35 37 36 36 38
12 9 9 10 12 15 20 22 23 26 29 30 31 32 34 34 34 35 36 37 37 38 37 38 40 39 38 36 38 41 43 45 46 46 44 42 39 38 38 37 37 37 37 33
13 13 14 13 12 12 17 20 21 20 23 29 31 33 34 35 37 37 37 37 37 36 37 38 38 38 37 36 34 34 36 39 43 44 42 39 38 39 38 37 36 33 31 30
16 18 17 17 15 15 16 15 16 18 20 23 26 30 32 35 39 40 40 38 38 38 37 36 36 35 35 34 34 32 30 31 33 34 35 36 38 38 39 38 34 31 31 32
16 17 16 17 18 19 19 22 25 27 29 29 28 31 33 34 36 38 41 41 40 38 37 37 35 34 33 34 33 34 33 34 34 34 35 36 35 36 39 34 32 31 29 31
19 19 20 21 23 26 27 28 28 30 31 33 39 42 49 48 44 39 36 36 38 39 37 37 36 35 34 33 33 32 33 33 31 36 37 35 35 36 35 35 34 30 30 31
21 24 25 25 26 28 30 32 31 32 35 38 40 49 47 49 48 38 38 36 34 34 36 36 34 33 34 33 33 33 32 32 33 32 33 32 31 31 30 31 32 31 32 31
23 25 27 29 31 31 31 32 34 35 39 40 46 52 56 52 44 34 40 37 33 34 35 34 34 33 32 32 32 32 32 32 32 33 33 32 31 31 31 30 30 29 29 29
Wind_Direction
168 152 163 163 191 198 201 206 204 200 186 201 199 205 193 205 213 217 216 219 221 224 225 230 234 239 246 252 255 261 268 261 257 252 260 269 263 258 260 259 259 261 260 258
161 174 151 185 185 191 201 204 206 202 204 202 202 205 211 221 222 221 222 216 219 222 226 229 232 237 244 249 256 260 257 257 261 265 268 265 264 262 261 261 262 261 262 261
153 174 139 157 190 184 197 200 208 198 207 197 198 212 214 213 203 216 218 230 225 224 229 232 234 240 246 251 255 259 261 262 264 263 263 264 258 258 261 261 259 257 257 258
143 177 169 142 170 175 190 201 204 197 201 209 198 204 203 211 202 199 215 216 216 221 226 229 236 243 250 255 258 262 258 257 259 260 260 260 264 259 259 261 258 256 258 254
117 143 158 172 160 160 172 180 200 211 208 195 213 210 190 204 213 209 212 224 222 218 217 221 230 240 251 254 257 259 258 256 252 258 260 258 258 258 248 246 250 249 259 260
118 125 141 157 166 162 169 160 177 195 214 217 203 222 212 203 212 210 215 216 220 222 227 229 232 238 242 251 256 256 255 254 251 253 255 262 257 259 254 256 256 258 265 267
142 148 148 152 165 180 171 164 172 168 178 214 215 208 211 208 213 214 217 222 218 222 225 226 231 234 239 247 252 257 256 255 253 249 249 256 254 256 256 257 256 258 259 259
134 143 156 157 155 182 190 191 195 183 189 197 207 205 202 194 204 206 211 221 225 225 228 231 233 238 244 249 248 250 250 252 255 256 247 250 255 248 254 251 253 255 261 264
124 138 144 146 172 164 185 199 207 199 211 222 220 211 215 211 212 219 227 235 237 239 242 245 244 244 248 252 253 252 251 248 248 245 248 246 251 249 262 255 259 262 261 260
139 154 145 154 172 176 198 199 207 223 223 223 216 217 217 225 233 234 234 234 235 236 241 245 250 254 255 255 254 250 248 248 247 245 245 247 245 250 257 260 260 261 264 264
139 182 188 195 187 199 200 200 199 207 217 226 228 223 218 223 224 226 229 235 237 235 238 244 254 259 263 264 258 253 245 243 245 243 245 246 250 254 257 263 267 264 269 267
167 142 162 171 176 200 216 218 223 229 231 227 227 225 221 226 231 233 233 233 235 237 236 239 247 257 265 268 267 260 254 250 248 248 250 252 244 249 250 257 254 264 258 267
130 117 123 179 207 233 219 216 225 225 225 228 221 221 222 226 230 232 230 229 234 239 241 243 247 253 258 262 266 265 261 256 251 252 252 255 250 246 253 256 259 263 268 272
235 287 289 267 247 225 215 221 227 230 233 231 228 235 238 240 243 234 234 236 237 240 244 249 253 256 258 260 261 261 263 263 263 258 253 251 254 256 256 264 266 268 272 272
268 277 283 269 233 235 228 245 254 256 244 239 236 239 242 244 246 246 241 239 240 242 247 252 252 251 251 251 256 258 260 259 260 262 260 257 262 263 261 264 263 269 272 281
277 280 289 281 254 249 257 274 272 260 252 251 236 241 243 248 245 247 253 254 254 254 252 251 251 253 252 249 248 248 253 258 259 258 258 260 260 261 263 267 271 271 272 274
266 270 267 273 278 270 262 263 268 268 263 258 247 243 239 246 257 260 258 255 253 251 251 251 252 251 254 253 250 245 246 250 256 258 258 259 260 261 264 268 274 278 279 280
284 276 272 270 270 277 278 281 275 269 265 267 263 254 251 249 254 258 258 258 257 255 253 252 249 246 246 251 251 250 248 248 249 254 258 260 260 261 264 269 272 276 277 279
340 316 299 283 276 278 279 278 280 279 276 270 265 263 258 257 255 254 254 255 256 258 259 259 259 257 253 250 249 250 250 249 249 251 255 258 261 259 262 266 268 272 274 276
5 351 328 303 294 294 286 282 279 278 276 274 272 267 264 262 260 257 257 256 257 257 256 256 256 256 258 257 256 256 251 249 250 252 254 259 261 256 261 262 267 273 274 272
10 5 2 344 332 321 301 297 291 288 283 279 278 275 274 272 269 265 262 258 256 257 258 256 255 255 256 258 259 258 254 251 252 256 258 259 257 257 260 262 266 268 266 268
6 3 353 347 338 339 320 316 312 303 292 286 284 282 279 276 270 266 264 262 261 259 257 257 256 255 255 254 253 253 253 249 249 250 253 256 256 257 258 258 259 262 264 264
357 358 344 334 331 316 309 305 302 299 296 295 289 290 291 289 285 275 265 262 260 257 255 254 254 255 254 253 252 251 254 253 253 253 254 253 249 248 249 252 256 260 263 264
352 346 341 332 330 322 313 306 302 296 292 288 283 278 285 285 287 274 269 264 259 258 257 255 255 254 254 252 252 252 252 252 256 254 252 255 251 251 254 256 256 258 262 262
344 341 339 334 327 324 315 312 308 307 304 301 295 296 288 278 275 264 261 264 264 259 257 254 254 255 255 253 251 249 249 249 249 251 254 255 257 260 262 264 262 261 259 260
334 334 334 333 333 328 321 316 315 311 313 308 305 308 289 281 264 260 255 255 265 263 257 256 253 253 254 254 252 250 250 248 248 250 252 255 257 257 258 260 260 259 258 259
Height
5578 5589 5597 5609 5622 5629 5645 5654 5663 5669 5680 5689 5700 5710 5712 5721 5731 5740 5750 5758 5763 5770 5776 5782 5788 5792 5794 5797 5801 5806 5810 5814 5816 5818 5818 5820 5826 5831 5832 5834 5836 5836 5837 5839
5586 5592 5600 5611 5619 5631 5641 5652 5661 5671 5682 5689 5698 5705 5710 5719 5729 5734 5741 5751 5758 5763 5769 5775 5781 5787 5789 5793 5797 5801 5804 5806 5810 5812 5815 5819 5822 5825 5824 5825 5828 5830 5830 5831
5593 5598 5604 5615 5625 5634 5642 5651 5661 5674 5680 5688 5694 5702 5711 5717 5721 5725 5736 5742 5748 5756 5762 5768 5774 5779 5782 5787 5790 5792 5795 5798 5802 5804 5808 5813 5814 5817 5817 5819 5821 5821 5821 5822
5599 5608 5615 5621 5628 5639 5648 5657 5667 5673 5678 5685 5694 5704 5708 5712 5717 5724 5733 5738 5742 5750 5757 5763 5768 5772 5777 5779 5782 5786 5789 5791 5794 5797 5800 5804 5805 5807 5809 5811 5811 5811 5810 5811
5608 5614 5621 5627 5634 5642 5651 5660 5667 5673 5680 5688 5689 5698 5704 5708 5715 5721 5726 5732 5738 5744 5751 5758 5763 5766 5768 5770 5773 5777 5781 5784 5784 5787 5792 5794 5795 5797 5798 5801 5802 5802 5801 5800
5618 5622 5628 5635 5640 5647 5652 5658 5666 5674 5679 5681 5688 5694 5700 5707 5712 5716 5722 5729 5733 5739 5746 5751 5756 5759 5761 5762 5764 5767 5770 5774 5775 5778 5783 5786 5787 5787 5790 5790 5791 5791 5791 5792
5625 5629 5633 5639 5644 5650 5654 5659 5666 5672 5676 5679 5685 5692 5697 5703 5709 5713 5717 5722 5728 5734 5740 5744 5749 5752 5753 5754 5755 5756 5760 5765 5766 5767 5771 5773 5775 5777 5779 5779 5780 5780 5781 5782
5632 5635 5638 5641 5647 5653 5658 5664 5668 5672 5676 5682 5684 5691 5697 5701 5707 5711 5714 5718 5723 5728 5733 5737 5740 5742 5743 5744 5745 5748 5750 5753 5756 5757 5760 5761 5763 5768 5766 5769 5770 5770 5770 5772
5638 5641 5643 5646 5648 5654 5658 5664 5669 5674 5677 5682 5687 5693 5696 5698 5702 5705 5710 5715 5718 5721 5724 5727 5730 5733 5734 5735 5735 5736 5740 5742 5744 5746 5748 5750 5752 5755 5757 5760 5760 5760 5760 5761
5643 5646 5648 5650 5652 5656 5660 5666 5671 5673 5677 5679 5682 5686 5690 5695 5698 5702 5706 5710 5713 5716 5717 5719 5720 5721 5722 5723 5724 5724 5727 5730 5731 5734 5736 5738 5740 5743 5746 5748 5750 5750 5749 5750
5645 5647 5651 5653 5656 5657 5660 5662 5666 5670 5674 5676 5681 5686 5689 5691 5694 5697 5699 5702 5705 5708 5709 5710 5710 5711 5712 5712 5714 5715 5716 5718 5720 5721 5724 5726 5729 5732 5734 5736 5736 5737 5739 5739
5648 5648 5650 5654 5656 5658 5660 5662 5664 5666 5671 5673 5677 5682 5684 5687 5689 5691 5692 5695 5697 5699 5701 5702 5703 5703 5704 5705 5705 5706 5706 5708 5709 5711 5713 5716 5718 5719 5722 5723 5723 5722 5724 5725
5650 5651 5653 5655 5657 5658 5659 5660 5661 5662 5665 5669 5672 5676 5678 5681 5684 5684 5686 5688 5690 5692 5694 5695 5696 5697 5699 5699 5698 5698 5697 5697 5699 5700 5703 5705 5706 5706 5706 5708 5709 5710 5711 5712
5652 5652 5654 5656 5656 5657 5657 5658 5659 5660 5661 5665 5666 5670 5671 5673 5675 5677 5679 5680 5683 5685 5686 5687 5689 5690 5691 5692 5691 5690 5690 5690 5690 5690 5692 5695 5694 5696 5698 5698 5699 5699 5700 5700
5651 5652 5653 5653 5655 5656 5657 5657 5658 5660 5660 5660 5664 5663 5665 5665 5666 5667 5669 5671 5673 5675 5677 5678 5680 5681 5682 5682 5682 5682 5682 5683 5682 5682 5683 5684 5685 5686 5687 5688 5689 5690 5690 5690
5650 5650 5651 5652 5652 5653 5654 5654 5653 5655 5655 5656 5658 5658 5657 5657 5657 5659 5660 5663 5664 5665 5668 5668 5669 5670 5672 5673 5674 5674 5674 5674 5675 5675 5675 5676 5676 5676 5677 5679 5680 5680 5680 5679
5648 5648 5649 5649 5650 5650 5651 5649 5648 5648 5649 5650 5652 5653 5652 5652 5650 5651 5653 5654 5655 5656 5657 5658 5660 5661 5661 5662 5663 5664 5665 5666 5666 5667 5667 5668 5668 5669 5669 5669 5670 5669 5667 5666
5645 5646 5646 5647 5645 5645 5644 5644 5644 5644 5643 5642 5643 5644 5644 5644 5644 5644 5644 5644 5645 5647 5648 5649 5649 5650 5651 5651 5652 5653 5654 5656 5657 5658 5659 5659 5659 5659 5659 5660 5659 5659 5658 5657
5642 5642 5642 5642 5641 5641 5640 5640 5640 5639 5638 5637 5635 5634 5634 5634 5635 5634 5634 5635 5635 5636 5636 5637 5638 5639 5640 5640 5640 5642 5643 5644 5645 5646 5647 5648 5648 5649 5649 5649 5649 5649 5648 5647
5639 5638 5638 5637 5637 5636 5634 5632 5632 5632 5632 5628 5627 5625 5624 5623 5623 5623 5622 5623 5623 5624 5624 5625 5625 5626 5627 5627 5628 5629 5630 5631 5633 5634 5635 5637 5638 5639 5639 5638 5638 5638 5638 5637
5637 5636 5635 5632 5631 5631 5629 5627 5625 5625 5625 5620 5618 5617 5615 5613 5612 5612 5611 5610 5611 5611 5611 5613 5614 5614 5615 5616 5616 5617 5618 5619 5620 5623 5625 5626 5627 5628 5627 5628 5628 5627 5628 5628
5635 5633 5631 5629 5628 5627 5623 5622 5621 5618 5615 5611 5609 5606 5604 5602 5600 5598 5598 5599 5599 5598 5599 5600 5601 5603 5604 5605 5606 5607 5608 5608 5610 5612 5613 5614 5615 5616 5617 5617 5618 5618 5618 5619
5633 5631 5629 5627 5624 5621 5619 5616 5613 5611 5608 5604 5600 5596 5592 5591 5588 5585 5584 5584 5585 5586 5587 5588 5590 5591 5592 5593 5595 5596 5597 5598 5599 5601 5602 5603 5604 5605 5606 5607 5608 5609 5609 5609
5629 5626 5624 5621 5618 5613 5610 5607 5605 5602 5598 5594 5590 5585 5579 5575 5573 5571 5570 5570 5571 5573 5574 5576 5577 5579 5581 5582 5584 5585 5586 5588 5589 5590 5592 5592 5593 5594 5596 5597 5597 5598 5599 5600
5625 5621 5618 5614 5610 5606 5600 5596 5593 5589 5585 5580 5575 5568 5561 5555 5553 5554 5556 5557 5558 5560 5562 5564 5565 5567 5569 5571 5573 5575 5576 5578 5579 5581 5582 5583 5584 5585 5586 5587 5588 5588 5590 5591
5620 5616 5613 5608 5603 5599 5594 5589 5585 5581 5576 5569 5561 5549 5533 5526 5529 5537 5540 5543 5546 5547 5550 5553 5555 5556 5559 5560 5562 5564 5566 5567 5569 5570 5571 5573 5574 5575 5577 5578 5578 5579 5580 5581